DLH623 OERK-EDDF

Flight info

Callsign DLH623
Flight time 5h 56m
Altitude 36000
Route IVONU Z710 GAS G662 NIMAR/N0478F380 L550 NOVPA N697 MENLI L677 CVO L617 NOZ L551 ANTAR DCT RIGRO DCT DISOR/N0464F400 DCT LONTA UL608 DOLEV DCT BEDOX DCT SIMBA DCT AKINI T161 DEBHI DEBHI1B
Aircraft A343/H-SDE2E3FGHIJ4J5M1RWXY/LB1D1

Departure

Time 2026-05-06 07:35
Airport King Khalid International Airport (OERK)

Arrival

Time 2026-05-06 13:32
Airport Frankfurt Main Airport (EDDF)
Time Latitude Longitude Altitude Speed Heading
2026-05-06 06:33 24.94422 46.71223 2058 ft 0 kts 239°
2026-05-06 07:23 24.94430 46.71237 2073 ft 4 kts 239°
2026-05-06 07:24 24.94444 46.71263 2071 ft 4 kts 239°
2026-05-06 07:24 24.94458 46.71288 2068 ft 4 kts 233°
2026-05-06 07:24 24.94476 46.71308 2068 ft 4 kts 198°
2026-05-06 07:24 24.94488 46.71310 2066 ft 1 kts 150°
2026-05-06 07:28 24.94484 46.71312 2067 ft 2 kts 150°
2026-05-06 07:29 24.94454 46.71331 2073 ft 7 kts 150°
2026-05-06 07:29 24.94394 46.71369 2074 ft 12 kts 149°
2026-05-06 07:29 24.94305 46.71426 2070 ft 16 kts 149°
2026-05-06 07:29 24.94234 46.71471 2071 ft 6 kts 150°
2026-05-06 07:30 24.94203 46.71501 2072 ft 5 kts 118°
2026-05-06 07:30 24.94208 46.71535 2067 ft 6 kts 73°
2026-05-06 07:30 24.94231 46.71584 2072 ft 9 kts 62°
2026-05-06 07:30 24.94264 46.71649 2074 ft 11 kts 60°
2026-05-06 07:31 24.94302 46.71720 2072 ft 11 kts 60°
2026-05-06 07:31 24.94339 46.71791 2072 ft 11 kts 60°
2026-05-06 07:31 24.94376 46.71861 2071 ft 11 kts 60°
2026-05-06 07:31 24.94413 46.71933 2071 ft 11 kts 59°
2026-05-06 07:32 24.94453 46.72008 2069 ft 12 kts 59°
2026-05-06 07:32 24.94499 46.72096 2062 ft 15 kts 60°
2026-05-06 07:32 24.94534 46.72164 2062 ft 8 kts 60°
2026-05-06 07:32 24.94552 46.72177 2066 ft 1 kts 356°
2026-05-06 07:33 24.94561 46.72172 2060 ft 0 kts 334°
2026-05-06 07:34 24.94604 46.72148 2066 ft 25 kts 333°
2026-05-06 07:34 24.94906 46.71960 2068 ft 73 kts 330°
2026-05-06 07:34 24.95469 46.71603 2062 ft 113 kts 330°
2026-05-06 07:34 24.96250 46.71110 2064 ft 144 kts 330°
2026-05-06 07:35 24.97196 46.70498 2092 ft 168 kts 331°
2026-05-06 07:35 24.98169 46.69892 2602 ft 156 kts 337°
2026-05-06 07:35 24.99202 46.69512 2950 ft 158 kts 347°
2026-05-06 07:35 25.00293 46.69137 3157 ft 172 kts 344°
2026-05-06 07:36 25.01491 46.68686 3257 ft 193 kts 341°
2026-05-06 07:36 25.02835 46.68155 3369 ft 218 kts 342°
2026-05-06 07:36 25.04327 46.67561 3547 ft 242 kts 342°
2026-05-06 07:36 25.05978 46.66898 3974 ft 256 kts 343°
2026-05-06 07:37 25.07590 46.65975 4374 ft 277 kts 324°
2026-05-06 07:37 25.08758 46.64233 4857 ft 291 kts 289°
2026-05-06 07:37 25.08945 46.62043 5496 ft 288 kts 258°
2026-05-06 07:37 25.08580 46.59905 6396 ft 279 kts 255°
2026-05-06 07:38 25.08178 46.57821 7172 ft 277 kts 255°
2026-05-06 07:38 25.07798 46.55718 7811 ft 281 kts 259°
2026-05-06 07:38 25.07631 46.53539 8454 ft 286 kts 265°
2026-05-06 07:38 25.07578 46.51348 9188 ft 287 kts 265°
2026-05-06 07:39 25.07537 46.49139 9943 ft 288 kts 266°
2026-05-06 07:39 25.07494 46.46901 10418 ft 299 kts 266°
2026-05-06 07:39 25.07445 46.44542 10703 ft 316 kts 265°
2026-05-06 07:39 25.07393 46.42083 10946 ft 332 kts 266°
2026-05-06 07:40 25.07339 46.39475 11199 ft 348 kts 266°
2026-05-06 07:40 25.07282 46.36754 11437 ft 362 kts 266°
2026-05-06 07:40 25.07224 46.33925 11741 ft 373 kts 266°
2026-05-06 07:40 25.07166 46.31051 12245 ft 377 kts 266°
2026-05-06 07:41 25.07104 46.28158 12795 ft 380 kts 266°
2026-05-06 07:41 25.07038 46.25231 13304 ft 384 kts 266°
2026-05-06 07:41 25.06972 46.22276 13867 ft 387 kts 266°
2026-05-06 07:41 25.06905 46.19301 14376 ft 389 kts 266°
2026-05-06 07:42 25.06839 46.16317 14968 ft 389 kts 266°
2026-05-06 07:42 25.06770 46.13322 15543 ft 390 kts 266°
2026-05-06 07:42 25.06700 46.10330 16146 ft 391 kts 266°
2026-05-06 07:42 25.06629 46.07324 16718 ft 393 kts 266°
2026-05-06 07:43 25.06558 46.04304 17337 ft 393 kts 266°
2026-05-06 07:43 25.06485 46.01284 17941 ft 395 kts 266°
2026-05-06 07:43 25.06414 45.98293 18497 ft 396 kts 266°
2026-05-06 07:43 25.06340 45.95250 18975 ft 398 kts 266°
2026-05-06 07:44 25.06263 45.92174 19397 ft 402 kts 266°
2026-05-06 07:44 25.06187 45.89089 19866 ft 404 kts 266°
2026-05-06 07:44 25.06110 45.85975 20322 ft 407 kts 266°
2026-05-06 07:44 25.06032 45.82846 20749 ft 409 kts 266°
2026-05-06 07:45 25.05952 45.79691 21191 ft 412 kts 266°
2026-05-06 07:45 25.05872 45.76524 21623 ft 414 kts 266°
2026-05-06 07:45 25.05790 45.73341 22076 ft 416 kts 266°
2026-05-06 07:45 25.05817 45.70134 22495 ft 421 kts 271°
2026-05-06 07:46 25.06274 45.66919 22943 ft 427 kts 281°
2026-05-06 07:46 25.07237 45.63803 23374 ft 433 kts 288°
2026-05-06 07:46 25.08440 45.60776 23741 ft 438 kts 290°
2026-05-06 07:46 25.09764 45.57724 24099 ft 440 kts 291°
2026-05-06 07:47 25.11126 45.54692 24480 ft 442 kts 292°
2026-05-06 07:47 25.12498 45.51653 24836 ft 443 kts 292°
2026-05-06 07:47 25.13869 45.48592 25183 ft 445 kts 291°
2026-05-06 07:47 25.15227 45.45527 25537 ft 446 kts 291°
2026-05-06 07:48 25.16588 45.42426 25879 ft 448 kts 291°
2026-05-06 07:48 25.17922 45.39367 26238 ft 449 kts 290°
2026-05-06 07:48 25.19274 45.36260 26613 ft 449 kts 290°
2026-05-06 07:48 25.20626 45.33143 26947 ft 451 kts 290°
2026-05-06 07:49 25.21983 45.30014 27247 ft 453 kts 290°
2026-05-06 07:49 25.23344 45.26871 27555 ft 454 kts 290°
2026-05-06 07:49 25.24714 45.23709 27857 ft 456 kts 290°
2026-05-06 07:49 25.26088 45.20535 28163 ft 458 kts 290°
2026-05-06 07:50 25.27463 45.17359 28452 ft 459 kts 290°
2026-05-06 07:50 25.28842 45.14171 28736 ft 461 kts 290°
2026-05-06 07:50 25.30228 45.10965 29056 ft 461 kts 289°
2026-05-06 07:50 25.31589 45.07816 29494 ft 459 kts 289°
2026-05-06 07:51 25.32966 45.04631 29911 ft 457 kts 289°
2026-05-06 07:51 25.34332 45.01468 30271 ft 456 kts 289°
2026-05-06 07:51 25.35699 44.98298 30586 ft 455 kts 289°
2026-05-06 07:51 25.37059 44.95140 30886 ft 454 kts 289°
2026-05-06 07:52 25.38414 44.91992 31215 ft 452 kts 289°
2026-05-06 07:52 25.39766 44.88850 31562 ft 450 kts 289°
2026-05-06 07:52 25.41108 44.85727 31879 ft 449 kts 288°
2026-05-06 07:52 25.42446 44.82613 32197 ft 447 kts 288°
2026-05-06 07:53 25.43777 44.79509 32497 ft 446 kts 288°
2026-05-06 07:53 25.45109 44.76403 32790 ft 445 kts 288°
2026-05-06 07:53 25.46414 44.73355 33073 ft 444 kts 288°
2026-05-06 07:53 25.47736 44.70267 33367 ft 442 kts 288°
2026-05-06 07:54 25.49051 44.67193 33675 ft 441 kts 288°
2026-05-06 07:54 25.50362 44.64130 33981 ft 440 kts 288°
2026-05-06 07:54 25.51697 44.61086 34251 ft 441 kts 290°
2026-05-06 07:54 25.53304 44.58172 34525 ft 447 kts 297°
2026-05-06 07:55 25.55281 44.55477 34746 ft 456 kts 304°
2026-05-06 07:55 25.57519 44.52974 34945 ft 458 kts 307°
2026-05-06 07:55 25.59835 44.50529 35160 ft 459 kts 308°
2026-05-06 07:55 25.62181 44.48122 35349 ft 460 kts 308°
2026-05-06 07:56 25.64536 44.45729 35566 ft 459 kts 308°
2026-05-06 07:56 25.66889 44.43338 35767 ft 458 kts 308°
2026-05-06 07:56 25.69232 44.40947 35974 ft 458 kts 307°
2026-05-06 07:56 25.71549 44.38570 36019 ft 460 kts 307°
2026-05-06 07:57 25.76224 44.33750 36020 ft 457 kts 307°
2026-05-06 07:57 25.80877 44.28934 36019 ft 457 kts 307°
2026-05-06 07:58 25.85521 44.24118 36017 ft 457 kts 307°
2026-05-06 07:58 25.89382 44.20113 36014 ft 456 kts 307°
2026-05-06 07:59 25.94018 44.15302 36029 ft 456 kts 307°
2026-05-06 07:59 25.98654 44.10486 36012 ft 456 kts 307°
2026-05-06 08:00 26.03277 44.05676 36015 ft 456 kts 307°
2026-05-06 08:00 26.07915 44.00847 36045 ft 455 kts 306°
2026-05-06 08:01 26.12496 43.96073 36035 ft 454 kts 306°
2026-05-06 08:01 26.17113 43.91253 36040 ft 454 kts 306°
2026-05-06 08:02 26.21724 43.86434 36045 ft 454 kts 306°
2026-05-06 08:02 26.26335 43.81611 36057 ft 455 kts 306°
2026-05-06 08:03 26.30505 43.76481 36050 ft 437 kts 294°
2026-05-06 08:03 26.33792 43.70827 36047 ft 433 kts 292°
2026-05-06 08:04 26.36914 43.65121 36044 ft 433 kts 291°
2026-05-06 08:04 26.40029 43.59380 36045 ft 432 kts 291°
2026-05-06 08:05 26.43153 43.53651 36037 ft 432 kts 292°
2026-05-06 08:05 26.46280 43.47927 36041 ft 432 kts 292°
2026-05-06 08:06 26.49408 43.42200 36052 ft 432 kts 292°
2026-05-06 08:06 26.52536 43.36468 36045 ft 431 kts 292°
2026-05-06 08:07 26.55653 43.30746 36045 ft 431 kts 292°
2026-05-06 08:07 26.58765 43.25025 36046 ft 430 kts 292°
2026-05-06 08:08 26.61869 43.19311 36049 ft 430 kts 292°
2026-05-06 08:08 26.64970 43.13596 36049 ft 430 kts 292°
2026-05-06 08:09 26.68053 43.07918 36050 ft 430 kts 292°
2026-05-06 08:09 26.71149 43.02196 36067 ft 430 kts 292°
2026-05-06 08:10 26.74251 42.96455 36053 ft 430 kts 292°
2026-05-06 08:10 26.77347 42.90722 36053 ft 430 kts 292°
2026-05-06 08:11 26.80445 42.84979 36056 ft 430 kts 292°
2026-05-06 08:11 26.83538 42.79240 36056 ft 430 kts 292°
2026-05-06 08:12 26.86614 42.73522 36058 ft 430 kts 292°
2026-05-06 08:12 26.89701 42.67778 36059 ft 430 kts 292°
2026-05-06 08:13 26.92789 42.62024 36059 ft 430 kts 292°
2026-05-06 08:13 26.95871 42.56272 36062 ft 431 kts 291°
2026-05-06 08:14 26.98953 42.50514 36062 ft 431 kts 291°
2026-05-06 08:14 27.02019 42.44778 36068 ft 431 kts 291°
2026-05-06 08:15 27.05098 42.39013 36074 ft 431 kts 291°
2026-05-06 08:15 27.08175 42.33241 36066 ft 431 kts 291°
2026-05-06 08:16 27.11255 42.27459 36070 ft 431 kts 291°
2026-05-06 08:16 27.14328 42.21677 36067 ft 430 kts 291°
2026-05-06 08:17 27.17394 42.15898 36069 ft 431 kts 291°
2026-05-06 08:17 27.20439 42.10154 36067 ft 431 kts 291°
2026-05-06 08:18 27.23505 42.04365 36067 ft 431 kts 291°
2026-05-06 08:18 27.26569 41.98571 36123 ft 431 kts 291°
2026-05-06 08:19 27.29637 41.92761 36072 ft 431 kts 291°
2026-05-06 08:19 27.32698 41.86957 36068 ft 431 kts 291°
2026-05-06 08:20 27.35733 41.81197 36071 ft 431 kts 291°
2026-05-06 08:20 27.38783 41.75397 36080 ft 431 kts 291°
2026-05-06 08:21 27.41943 41.69632 36074 ft 438 kts 296°
2026-05-06 08:21 27.43929 41.66974 36102 ft 449 kts 304°
2026-05-06 08:21 27.46159 41.64486 36100 ft 452 kts 306°
2026-05-06 08:22 27.50789 41.59643 36101 ft 455 kts 307°
2026-05-06 08:22 27.55447 41.54883 36108 ft 455 kts 307°
2026-05-06 08:23 27.60130 41.50078 36087 ft 456 kts 307°
2026-05-06 08:23 27.64805 41.45248 36081 ft 456 kts 307°
2026-05-06 08:24 27.69482 41.40394 36079 ft 456 kts 307°
2026-05-06 08:24 27.74115 41.35577 36083 ft 456 kts 307°
2026-05-06 08:25 27.78784 41.30719 36083 ft 456 kts 307°
2026-05-06 08:25 27.83460 41.25849 36081 ft 456 kts 307°
2026-05-06 08:26 27.88123 41.20987 36076 ft 456 kts 307°
2026-05-06 08:26 27.92784 41.16123 36093 ft 456 kts 307°
2026-05-06 08:27 27.97440 41.11263 36101 ft 456 kts 307°
2026-05-06 08:27 28.02094 41.06391 36091 ft 455 kts 307°
2026-05-06 08:28 28.06711 41.01550 36129 ft 455 kts 307°
2026-05-06 08:28 28.11353 40.96681 36099 ft 454 kts 307°
2026-05-06 08:29 28.15990 40.91811 36100 ft 454 kts 307°
2026-05-06 08:29 28.20630 40.86932 36104 ft 454 kts 307°
2026-05-06 08:30 28.25258 40.82060 36109 ft 454 kts 307°
2026-05-06 08:30 28.29889 40.77179 36108 ft 454 kts 307°
2026-05-06 08:31 28.34514 40.72298 36109 ft 454 kts 307°
2026-05-06 08:31 28.39105 40.67447 36114 ft 454 kts 307°
2026-05-06 08:32 28.43730 40.62553 36130 ft 454 kts 306°
2026-05-06 08:32 28.48351 40.57658 36115 ft 453 kts 306°
2026-05-06 08:33 28.52970 40.52759 36121 ft 453 kts 306°
2026-05-06 08:33 28.57554 40.47891 36122 ft 453 kts 306°
2026-05-06 08:34 28.64479 40.40524 36126 ft 454 kts 306°
2026-05-06 08:35 28.69091 40.35611 36131 ft 454 kts 306°
2026-05-06 08:35 28.73705 40.30690 36131 ft 454 kts 306°
2026-05-06 08:36 28.78292 40.25791 36134 ft 454 kts 306°
2026-05-06 08:36 28.82904 40.20859 36141 ft 454 kts 307°
2026-05-06 08:37 28.87514 40.15921 36141 ft 455 kts 307°
2026-05-06 08:37 28.92100 40.11007 36143 ft 455 kts 307°
2026-05-06 08:38 28.96714 40.06053 36147 ft 455 kts 306°
2026-05-06 08:38 29.01315 40.01108 36153 ft 455 kts 307°
2026-05-06 08:39 29.05856 39.96091 36148 ft 448 kts 302°
2026-05-06 08:39 29.07758 39.93323 36149 ft 437 kts 294°
2026-05-06 08:39 29.09245 39.90342 36150 ft 427 kts 286°
2026-05-06 08:40 29.10866 39.84034 36156 ft 409 kts 270°
2026-05-06 08:40 29.11116 39.77589 36153 ft 405 kts 265°
2026-05-06 08:41 29.11108 39.71137 36152 ft 406 kts 264°
2026-05-06 08:41 29.11085 39.64676 36148 ft 406 kts 264°
2026-05-06 08:42 29.11087 39.58221 36148 ft 406 kts 265°
2026-05-06 08:42 29.11100 39.51759 36148 ft 407 kts 265°
2026-05-06 08:43 29.11113 39.45289 36147 ft 407 kts 265°
2026-05-06 08:43 29.11121 39.38852 36146 ft 407 kts 265°
2026-05-06 08:44 29.11126 39.32379 36138 ft 407 kts 265°
2026-05-06 08:44 29.11127 39.25894 36144 ft 408 kts 265°
2026-05-06 08:45 29.11125 39.19396 36142 ft 408 kts 265°
2026-05-06 08:45 29.11120 39.12905 36143 ft 408 kts 265°
2026-05-06 08:46 29.11112 39.06402 36142 ft 409 kts 265°
2026-05-06 08:46 29.11100 38.99884 36136 ft 410 kts 265°
2026-05-06 08:47 29.11086 38.93398 36137 ft 410 kts 265°
2026-05-06 08:47 29.11070 38.86869 36138 ft 410 kts 265°
2026-05-06 08:48 29.11039 38.80346 36140 ft 411 kts 265°
2026-05-06 08:48 29.11005 38.73857 36131 ft 411 kts 265°
2026-05-06 08:49 29.10971 38.67323 36127 ft 411 kts 265°
2026-05-06 08:49 29.10935 38.60782 36139 ft 411 kts 265°
2026-05-06 08:50 29.10901 38.55332 36138 ft 412 kts 265°
2026-05-06 08:50 29.10859 38.48789 36136 ft 412 kts 265°
2026-05-06 08:51 29.10814 38.42217 36134 ft 412 kts 265°
2026-05-06 08:51 29.10767 38.35667 36132 ft 412 kts 265°
2026-05-06 08:52 29.10716 38.29143 36134 ft 412 kts 265°
2026-05-06 08:52 29.10658 38.22582 36134 ft 412 kts 265°
2026-05-06 08:53 29.10597 38.16028 36138 ft 412 kts 265°
2026-05-06 08:53 29.10533 38.09452 36124 ft 413 kts 265°
2026-05-06 08:54 29.10468 38.02919 36132 ft 414 kts 265°
2026-05-06 08:54 29.10400 37.96353 36124 ft 413 kts 265°
2026-05-06 08:55 29.10328 37.89761 36114 ft 414 kts 265°
2026-05-06 08:55 29.10251 37.83179 36127 ft 414 kts 265°
2026-05-06 08:56 29.10173 37.76630 36121 ft 414 kts 265°
2026-05-06 08:56 29.10092 37.70043 36133 ft 414 kts 265°
2026-05-06 08:57 29.10006 37.63430 36119 ft 415 kts 265°
2026-05-06 08:57 29.09919 37.56824 36121 ft 415 kts 265°
2026-05-06 08:58 29.09827 37.50256 36106 ft 415 kts 265°
2026-05-06 08:58 29.09769 37.43646 36114 ft 416 kts 265°
2026-05-06 08:59 29.09728 37.37018 36108 ft 417 kts 265°
2026-05-06 08:59 29.09682 37.30391 36098 ft 417 kts 265°
2026-05-06 09:00 29.09627 37.23754 36104 ft 416 kts 265°
2026-05-06 09:00 29.09567 37.17176 36102 ft 417 kts 265°
2026-05-06 09:01 29.09503 37.10527 36098 ft 417 kts 265°
2026-05-06 09:01 29.09437 37.03890 36085 ft 417 kts 265°
2026-05-06 09:02 29.09368 36.97246 36099 ft 417 kts 266°
2026-05-06 09:02 29.09295 36.90646 36085 ft 418 kts 266°
2026-05-06 09:03 29.09219 36.83995 36077 ft 418 kts 266°
2026-05-06 09:03 29.09140 36.77340 36078 ft 418 kts 266°
2026-05-06 09:04 29.09058 36.70685 36080 ft 419 kts 266°
2026-05-06 09:04 29.08972 36.64027 36074 ft 419 kts 266°
2026-05-06 09:05 29.08882 36.57352 36078 ft 419 kts 266°
2026-05-06 09:05 29.08789 36.50683 36076 ft 419 kts 265°
2026-05-06 09:06 29.08681 36.44003 36076 ft 420 kts 265°
2026-05-06 09:06 29.08493 36.37331 36074 ft 420 kts 265°
2026-05-06 09:07 29.08291 36.30650 36076 ft 420 kts 265°
2026-05-06 09:07 29.08097 36.23976 36093 ft 420 kts 265°
2026-05-06 09:08 29.07909 36.17335 36079 ft 420 kts 265°
2026-05-06 09:08 29.07717 36.10651 36077 ft 421 kts 265°
2026-05-06 09:09 29.07522 36.03966 36083 ft 421 kts 265°
2026-05-06 09:09 29.07323 35.97267 36083 ft 421 kts 265°
2026-05-06 09:10 29.07122 35.90621 36077 ft 421 kts 265°
2026-05-06 09:10 29.06915 35.83926 36088 ft 421 kts 265°
2026-05-06 09:11 29.06707 35.77240 36090 ft 421 kts 265°
2026-05-06 09:11 29.06494 35.70536 36088 ft 422 kts 265°
2026-05-06 09:12 29.06278 35.63836 36083 ft 422 kts 265°
2026-05-06 09:12 29.06058 35.57130 36083 ft 422 kts 265°
2026-05-06 09:13 29.05835 35.50422 36078 ft 422 kts 265°
2026-05-06 09:13 29.05609 35.43711 36072 ft 422 kts 265°
2026-05-06 09:14 29.05380 35.37042 36073 ft 423 kts 265°
2026-05-06 09:14 29.05147 35.30325 36067 ft 423 kts 265°
2026-05-06 09:15 29.04911 35.23609 36066 ft 423 kts 265°
2026-05-06 09:15 29.04669 35.16892 36058 ft 423 kts 265°
2026-05-06 09:16 29.04426 35.10162 36054 ft 424 kts 265°
2026-05-06 09:16 29.04179 35.03430 36052 ft 424 kts 265°
2026-05-06 09:17 29.03928 34.96697 36057 ft 424 kts 265°
2026-05-06 09:17 29.03673 34.89963 36045 ft 424 kts 265°
2026-05-06 09:18 29.03420 34.83273 36048 ft 424 kts 265°
2026-05-06 09:18 29.03287 34.76527 36051 ft 424 kts 266°
2026-05-06 09:19 29.03290 34.69776 36057 ft 425 kts 271°
2026-05-06 09:19 29.04420 34.63114 36058 ft 430 kts 283°
2026-05-06 09:20 29.06242 34.56637 36064 ft 432 kts 284°
2026-05-06 09:20 29.08172 34.50143 36068 ft 431 kts 284°
2026-05-06 09:21 29.10106 34.43656 36061 ft 430 kts 284°
2026-05-06 09:21 29.12014 34.37171 36074 ft 430 kts 284°
2026-05-06 09:22 29.13908 34.30678 36077 ft 430 kts 284°
2026-05-06 09:22 29.15800 34.24176 36082 ft 430 kts 284°
2026-05-06 09:23 29.17673 34.17722 36081 ft 430 kts 284°
2026-05-06 09:23 29.19559 34.11221 36079 ft 430 kts 284°
2026-05-06 09:24 29.21444 34.04707 36079 ft 430 kts 284°
2026-05-06 09:24 29.23315 33.98226 36084 ft 431 kts 284°
2026-05-06 09:25 29.25198 33.91712 36088 ft 431 kts 284°
2026-05-06 09:25 29.27073 33.85198 36086 ft 431 kts 284°
2026-05-06 09:26 29.28941 33.78683 36083 ft 430 kts 284°
2026-05-06 09:26 29.30810 33.72161 36083 ft 430 kts 284°
2026-05-06 09:27 29.32674 33.65640 36090 ft 430 kts 284°
2026-05-06 09:27 29.34538 33.59113 36083 ft 430 kts 284°
2026-05-06 09:28 29.36383 33.52635 36082 ft 430 kts 284°
2026-05-06 09:28 29.38240 33.46104 36082 ft 430 kts 284°
2026-05-06 09:29 29.40094 33.39570 36085 ft 430 kts 284°
2026-05-06 09:29 29.41942 33.33041 36082 ft 430 kts 284°
2026-05-06 09:30 29.43777 33.26546 36086 ft 430 kts 284°
2026-05-06 09:30 29.45618 33.20015 36087 ft 430 kts 284°
2026-05-06 09:31 29.47459 33.13470 36091 ft 430 kts 284°
2026-05-06 09:31 29.49294 33.06931 36085 ft 430 kts 284°
2026-05-06 09:32 29.51129 33.00386 36086 ft 430 kts 284°
2026-05-06 09:32 29.52944 32.93893 36095 ft 430 kts 284°
2026-05-06 09:33 29.54768 32.87355 36094 ft 430 kts 284°
2026-05-06 09:33 29.56587 32.80819 36098 ft 429 kts 284°
2026-05-06 09:34 29.58406 32.74271 36098 ft 429 kts 284°
2026-05-06 09:34 29.60218 32.67739 36104 ft 429 kts 284°
2026-05-06 09:35 29.61818 32.61140 36116 ft 428 kts 281°
2026-05-06 09:35 29.63237 32.54548 36099 ft 427 kts 281°
2026-05-06 09:36 29.64686 32.47919 36108 ft 428 kts 282°
2026-05-06 09:36 29.66172 32.41289 36108 ft 428 kts 282°
2026-05-06 09:37 29.67666 32.34669 36120 ft 428 kts 282°
2026-05-06 09:37 29.69149 32.28080 36117 ft 427 kts 282°
2026-05-06 09:38 29.70634 32.21466 36119 ft 427 kts 282°
2026-05-06 09:38 29.72114 32.14851 36117 ft 427 kts 282°
2026-05-06 09:39 29.73590 32.08234 36119 ft 427 kts 282°
2026-05-06 09:39 29.75062 32.01618 36119 ft 426 kts 282°
2026-05-06 09:40 29.76531 31.95000 36121 ft 426 kts 282°
2026-05-06 09:40 29.79481 31.85399 36126 ft 431 kts 297°
2026-05-06 09:41 29.82868 31.79665 36130 ft 434 kts 302°
2026-05-06 09:41 29.86466 31.74079 36126 ft 434 kts 303°
2026-05-06 09:42 29.90088 31.68499 36123 ft 434 kts 303°
2026-05-06 09:42 29.93696 31.62914 36121 ft 434 kts 303°
2026-05-06 09:43 29.96702 31.58275 36104 ft 434 kts 303°
2026-05-06 09:43 30.00314 31.52690 36102 ft 434 kts 303°
2026-05-06 09:44 30.03924 31.47097 36104 ft 434 kts 303°
2026-05-06 09:44 30.07522 31.41512 36103 ft 434 kts 303°
2026-05-06 09:45 30.11609 31.36325 36103 ft 438 kts 311°
2026-05-06 09:45 30.16052 31.31477 36115 ft 439 kts 313°
2026-05-06 09:46 30.20536 31.26691 36102 ft 439 kts 313°
2026-05-06 09:46 30.25021 31.21894 36100 ft 438 kts 313°
2026-05-06 09:47 30.29488 31.17093 36098 ft 438 kts 313°
2026-05-06 09:47 30.33947 31.12284 36099 ft 438 kts 313°
2026-05-06 09:48 30.38375 31.07502 36107 ft 438 kts 313°
2026-05-06 09:48 30.42830 31.02685 36104 ft 438 kts 313°
2026-05-06 09:49 30.47281 30.97866 36104 ft 438 kts 313°
2026-05-06 09:49 30.51736 30.93038 36114 ft 438 kts 313°
2026-05-06 09:50 30.56191 30.88202 36112 ft 438 kts 313°
2026-05-06 09:50 30.60637 30.83371 36115 ft 438 kts 313°
2026-05-06 09:51 30.65088 30.78527 36111 ft 438 kts 313°
2026-05-06 09:51 30.69503 30.73716 36112 ft 438 kts 313°
2026-05-06 09:52 30.73948 30.68867 36114 ft 438 kts 313°
2026-05-06 09:52 30.78389 30.64014 36110 ft 438 kts 313°
2026-05-06 09:53 30.82828 30.59159 36104 ft 438 kts 313°
2026-05-06 09:53 30.87264 30.54299 36109 ft 438 kts 313°
2026-05-06 09:54 30.91704 30.49430 36104 ft 438 kts 313°
2026-05-06 09:54 30.96107 30.44593 36104 ft 438 kts 313°
2026-05-06 09:55 31.00542 30.39715 36112 ft 438 kts 313°
2026-05-06 09:55 31.04968 30.34840 36113 ft 437 kts 313°
2026-05-06 09:56 31.08788 30.29419 36111 ft 430 kts 298°
2026-05-06 09:56 31.11173 30.23074 36110 ft 427 kts 288°
2026-05-06 09:57 31.13015 30.16480 36112 ft 427 kts 286°
2026-05-06 09:57 31.14775 30.09860 36119 ft 427 kts 286°
2026-05-06 09:58 31.16564 30.03294 36117 ft 427 kts 289°
2026-05-06 09:58 31.19346 29.97152 36130 ft 432 kts 304°
2026-05-06 09:59 31.23650 29.92216 36128 ft 440 kts 321°
2026-05-06 09:59 31.28963 29.88582 36128 ft 444 kts 327°
2026-05-06 10:00 31.34437 29.85209 36128 ft 445 kts 328°
2026-05-06 10:00 31.39927 29.81837 36135 ft 444 kts 327°
2026-05-06 10:01 31.45364 29.78451 36128 ft 442 kts 327°
2026-05-06 10:01 31.50790 29.75046 36127 ft 442 kts 327°
2026-05-06 10:02 31.56171 29.71660 36124 ft 442 kts 327°
2026-05-06 10:02 31.61587 29.68249 36130 ft 441 kts 327°
2026-05-06 10:03 31.66993 29.64841 36128 ft 441 kts 327°
2026-05-06 10:03 31.72399 29.61428 36126 ft 441 kts 327°
2026-05-06 10:04 31.77804 29.58012 36130 ft 441 kts 327°
2026-05-06 10:04 31.83207 29.54593 36149 ft 441 kts 327°
2026-05-06 10:05 31.88603 29.51173 36129 ft 440 kts 327°
2026-05-06 10:05 31.93993 29.47753 36129 ft 439 kts 327°
2026-05-06 10:06 31.99374 29.44334 36127 ft 439 kts 327°
2026-05-06 10:06 32.04758 29.40914 36127 ft 439 kts 327°
2026-05-06 10:07 32.10137 29.37485 36129 ft 439 kts 327°
2026-05-06 10:07 32.15513 29.34052 36129 ft 439 kts 327°
2026-05-06 10:08 32.20852 29.30640 36129 ft 439 kts 327°
2026-05-06 10:08 32.26219 29.27207 36127 ft 439 kts 327°
2026-05-06 10:09 32.31591 29.23761 36127 ft 438 kts 327°
2026-05-06 10:09 32.36949 29.20319 36128 ft 438 kts 327°
2026-05-06 10:10 32.42307 29.16873 36128 ft 438 kts 327°
2026-05-06 10:10 32.47658 29.13427 36128 ft 438 kts 327°
2026-05-06 10:11 32.53008 29.09978 36116 ft 438 kts 327°
2026-05-06 10:11 32.58323 29.06547 36125 ft 438 kts 327°
2026-05-06 10:12 32.63678 29.03085 36122 ft 438 kts 327°
2026-05-06 10:12 32.69032 28.99619 36125 ft 437 kts 327°
2026-05-06 10:13 32.74366 28.96161 36126 ft 436 kts 327°
2026-05-06 10:13 32.79694 28.92702 36124 ft 435 kts 328°
2026-05-06 10:14 32.85009 28.89247 36123 ft 435 kts 328°
2026-05-06 10:14 32.90292 28.85807 36122 ft 435 kts 327°
2026-05-06 10:15 32.95604 28.82345 36124 ft 435 kts 327°
2026-05-06 10:15 33.00909 28.78882 36125 ft 434 kts 327°
2026-05-06 10:16 33.06207 28.75419 36121 ft 433 kts 327°
2026-05-06 10:16 33.11481 28.71967 36122 ft 432 kts 327°
2026-05-06 10:17 33.16752 28.68512 36120 ft 432 kts 327°
2026-05-06 10:17 33.21980 28.65079 36120 ft 432 kts 328°
2026-05-06 10:18 33.27248 28.61616 36125 ft 431 kts 328°
2026-05-06 10:18 33.32498 28.58162 36125 ft 430 kts 328°
2026-05-06 10:19 33.37726 28.54716 36124 ft 430 kts 328°
2026-05-06 10:19 33.42971 28.51254 36107 ft 430 kts 328°
2026-05-06 10:20 33.48220 28.47784 36116 ft 430 kts 328°
2026-05-06 10:20 33.53462 28.44315 36121 ft 430 kts 328°
2026-05-06 10:21 33.58701 28.40843 36123 ft 429 kts 328°
2026-05-06 10:21 33.63928 28.37374 36124 ft 429 kts 328°
2026-05-06 10:22 33.69122 28.33921 36122 ft 429 kts 328°
2026-05-06 10:22 33.74335 28.30452 36114 ft 429 kts 328°
2026-05-06 10:23 33.79557 28.26971 36114 ft 429 kts 328°
2026-05-06 10:23 33.84847 28.23625 36119 ft 429 kts 330°
2026-05-06 10:24 33.90214 28.20476 36119 ft 430 kts 331°
2026-05-06 10:24 33.95556 28.17329 36113 ft 429 kts 330°
2026-05-06 10:25 34.00908 28.14127 36116 ft 429 kts 330°
2026-05-06 10:25 34.06259 28.10902 36116 ft 429 kts 330°
2026-05-06 10:26 34.11601 28.07676 36112 ft 429 kts 330°
2026-05-06 10:26 34.16943 28.04447 36112 ft 428 kts 330°
2026-05-06 10:27 34.22276 28.01221 36109 ft 428 kts 330°
2026-05-06 10:27 34.27569 27.98014 36110 ft 428 kts 330°
2026-05-06 10:28 34.32886 27.94788 36112 ft 428 kts 330°
2026-05-06 10:28 34.38206 27.91555 36112 ft 427 kts 330°
2026-05-06 10:29 34.43519 27.88322 36110 ft 427 kts 330°
2026-05-06 10:29 34.48830 27.85086 36110 ft 427 kts 330°
2026-05-06 10:30 34.54133 27.81850 36108 ft 427 kts 330°
2026-05-06 10:30 34.58541 27.79156 36110 ft 427 kts 330°
2026-05-06 10:31 34.64705 27.75384 36097 ft 426 kts 330°
2026-05-06 10:31 34.69113 27.72683 36116 ft 426 kts 330°
2026-05-06 10:32 34.74406 27.69435 36112 ft 426 kts 330°
2026-05-06 10:32 34.79698 27.66183 36094 ft 426 kts 330°
2026-05-06 10:33 34.84996 27.62923 36104 ft 426 kts 330°
2026-05-06 10:33 34.90286 27.59662 36101 ft 426 kts 330°
2026-05-06 10:34 34.95570 27.56402 36105 ft 425 kts 330°
2026-05-06 10:34 35.00849 27.53139 36099 ft 425 kts 330°
2026-05-06 10:35 35.06128 27.49871 36100 ft 425 kts 330°
2026-05-06 10:35 35.11371 27.46621 36093 ft 425 kts 330°
2026-05-06 10:36 35.16641 27.43349 36116 ft 423 kts 330°
2026-05-06 10:36 35.21897 27.40082 36099 ft 423 kts 330°
2026-05-06 10:37 35.27152 27.36810 36096 ft 423 kts 330°
2026-05-06 10:37 35.32377 27.33552 36101 ft 423 kts 330°
2026-05-06 10:38 35.37618 27.30279 36102 ft 423 kts 330°
2026-05-06 10:38 35.42877 27.26991 36102 ft 423 kts 330°
2026-05-06 10:39 35.48116 27.23710 36097 ft 422 kts 330°
2026-05-06 10:39 35.53350 27.20427 36101 ft 422 kts 330°
2026-05-06 10:40 35.58588 27.17137 36088 ft 422 kts 330°
2026-05-06 10:40 35.63788 27.13866 36098 ft 422 kts 330°
2026-05-06 10:41 35.69018 27.10571 36119 ft 422 kts 330°
2026-05-06 10:41 35.74229 27.07283 36109 ft 420 kts 330°
2026-05-06 10:42 35.79423 27.04002 36104 ft 419 kts 330°
2026-05-06 10:42 35.84621 27.00712 36104 ft 420 kts 330°
2026-05-06 10:43 35.89814 26.97422 36104 ft 420 kts 330°
2026-05-06 10:44 35.97605 26.92475 36108 ft 419 kts 330°
2026-05-06 10:44 36.02753 26.89201 36106 ft 418 kts 330°
2026-05-06 10:45 36.07924 26.85907 36102 ft 418 kts 330°
2026-05-06 10:45 36.13119 26.82593 36108 ft 419 kts 330°
2026-05-06 10:46 36.18307 26.79277 36108 ft 420 kts 330°
2026-05-06 10:46 36.23495 26.75958 36111 ft 419 kts 330°
2026-05-06 10:47 36.28666 26.72644 36112 ft 418 kts 330°
2026-05-06 10:47 36.33833 26.69328 36102 ft 418 kts 330°
2026-05-06 10:48 36.38963 26.66030 36112 ft 418 kts 330°
2026-05-06 10:48 36.44139 26.62698 36114 ft 418 kts 330°
2026-05-06 10:49 36.49303 26.59368 36110 ft 418 kts 330°
2026-05-06 10:49 36.54461 26.56038 36096 ft 417 kts 330°
2026-05-06 10:50 36.59586 26.52723 36110 ft 419 kts 330°
2026-05-06 10:50 36.64769 26.49366 36112 ft 420 kts 330°
2026-05-06 10:51 36.69943 26.46012 36111 ft 420 kts 330°
2026-05-06 10:51 36.75120 26.42648 36113 ft 419 kts 330°
2026-05-06 10:52 36.80291 26.39284 36115 ft 418 kts 330°
2026-05-06 10:52 36.85450 26.35923 36116 ft 418 kts 330°
2026-05-06 10:53 36.90608 26.32556 36115 ft 418 kts 330°
2026-05-06 10:53 36.95771 26.29182 36113 ft 418 kts 330°
2026-05-06 10:54 37.00892 26.25829 36096 ft 418 kts 330°
2026-05-06 10:54 37.06054 26.22444 36111 ft 419 kts 330°
2026-05-06 10:55 37.11226 26.19048 36112 ft 420 kts 330°
2026-05-06 10:55 37.16406 26.15641 36113 ft 420 kts 330°
2026-05-06 10:56 37.21579 26.12234 36110 ft 420 kts 330°
2026-05-06 10:56 37.26745 26.08825 36115 ft 419 kts 330°
2026-05-06 10:57 37.31871 26.05439 36110 ft 418 kts 330°
2026-05-06 10:57 37.37012 26.02037 36111 ft 418 kts 330°
2026-05-06 10:58 37.42149 25.98632 36107 ft 418 kts 330°
2026-05-06 10:58 37.47290 25.95219 36107 ft 418 kts 330°
2026-05-06 10:59 37.52448 25.91792 36112 ft 420 kts 330°
2026-05-06 10:59 37.57603 25.88358 36108 ft 419 kts 330°
2026-05-06 11:00 37.62679 25.84771 36109 ft 417 kts 326°
2026-05-06 11:00 37.67545 25.80765 36276 ft 418 kts 325°
2026-05-06 11:00 37.69972 25.78735 36501 ft 418 kts 325°
2026-05-06 11:01 37.72410 25.76717 36627 ft 419 kts 325°
2026-05-06 11:01 37.74856 25.74716 36752 ft 417 kts 326°
2026-05-06 11:01 37.77258 25.72769 36885 ft 415 kts 326°
2026-05-06 11:01 37.79701 25.70799 37022 ft 414 kts 326°
2026-05-06 11:02 37.82130 25.68844 37147 ft 414 kts 326°
2026-05-06 11:02 37.84558 25.66889 37295 ft 413 kts 326°
2026-05-06 11:02 37.86994 25.64926 37416 ft 413 kts 326°
2026-05-06 11:02 37.89417 25.62971 37531 ft 413 kts 326°
2026-05-06 11:03 37.91814 25.61036 37679 ft 413 kts 325°
2026-05-06 11:03 37.94239 25.59075 37799 ft 414 kts 325°
2026-05-06 11:03 37.96670 25.57106 37944 ft 414 kts 325°
2026-05-06 11:03 37.99095 25.55141 38077 ft 414 kts 325°
2026-05-06 11:04 38.01519 25.53175 38097 ft 413 kts 325°
2026-05-06 11:04 38.06358 25.49246 38101 ft 412 kts 325°
2026-05-06 11:05 38.11185 25.45321 38101 ft 412 kts 325°
2026-05-06 11:05 38.16020 25.41383 38103 ft 412 kts 325°
2026-05-06 11:06 38.20843 25.37449 38100 ft 412 kts 325°
2026-05-06 11:06 38.25632 25.33535 38100 ft 412 kts 325°
2026-05-06 11:07 38.30462 25.29583 38108 ft 414 kts 325°
2026-05-06 11:07 38.35312 25.25608 38094 ft 414 kts 325°
2026-05-06 11:08 38.40150 25.21636 38097 ft 413 kts 325°
2026-05-06 11:08 38.44985 25.17661 38100 ft 413 kts 325°
2026-05-06 11:09 38.49817 25.13680 38094 ft 413 kts 325°
2026-05-06 11:09 38.54624 25.09715 38095 ft 414 kts 325°
2026-05-06 11:10 38.59477 25.05705 38096 ft 413 kts 325°
2026-05-06 11:10 38.64273 25.01736 38097 ft 413 kts 325°
2026-05-06 11:11 38.69107 24.97727 38095 ft 415 kts 325°
2026-05-06 11:11 38.73968 24.93691 38094 ft 416 kts 325°
2026-05-06 11:12 38.78833 24.89645 38093 ft 416 kts 325°
2026-05-06 11:12 38.83691 24.85598 38097 ft 416 kts 325°
2026-05-06 11:13 38.88542 24.81550 38091 ft 416 kts 325°
2026-05-06 11:13 38.93385 24.77502 38091 ft 416 kts 325°
2026-05-06 11:14 38.98238 24.73439 38093 ft 416 kts 325°
2026-05-06 11:14 39.03089 24.69371 38089 ft 416 kts 325°
2026-05-06 11:15 39.07906 24.65324 38109 ft 416 kts 325°
2026-05-06 11:15 39.12754 24.61245 38086 ft 416 kts 325°
2026-05-06 11:16 39.17605 24.57157 38089 ft 416 kts 325°
2026-05-06 11:16 39.22444 24.53071 38088 ft 416 kts 325°
2026-05-06 11:17 39.27282 24.48980 38086 ft 416 kts 325°
2026-05-06 11:17 39.32114 24.44887 38083 ft 416 kts 325°
2026-05-06 11:18 39.36922 24.40806 38086 ft 416 kts 325°
2026-05-06 11:18 39.41769 24.36687 38087 ft 416 kts 325°
2026-05-06 11:19 39.46627 24.32551 38081 ft 417 kts 325°
2026-05-06 11:19 39.51460 24.28430 38080 ft 418 kts 325°
2026-05-06 11:20 39.56313 24.24284 38081 ft 418 kts 325°
2026-05-06 11:20 39.60347 24.20833 38086 ft 418 kts 325°
2026-05-06 11:21 39.65987 24.15999 38083 ft 417 kts 325°
2026-05-06 11:21 39.70046 24.12515 38085 ft 417 kts 325°
2026-05-06 11:22 39.74861 24.08374 38078 ft 417 kts 325°
2026-05-06 11:22 39.79698 24.04208 38079 ft 418 kts 325°
2026-05-06 11:23 39.84558 24.00014 38085 ft 419 kts 325°
2026-05-06 11:23 39.89414 23.95817 38083 ft 419 kts 325°
2026-05-06 11:24 39.94279 23.91605 38078 ft 419 kts 325°
2026-05-06 11:24 39.99127 23.87401 38080 ft 419 kts 325°
2026-05-06 11:25 40.03953 23.83208 38081 ft 419 kts 325°
2026-05-06 11:25 40.08803 23.78986 38079 ft 419 kts 325°
2026-05-06 11:26 40.13659 23.74752 38056 ft 419 kts 325°
2026-05-06 11:26 40.18519 23.70508 38080 ft 421 kts 325°
2026-05-06 11:27 40.23397 23.66239 38074 ft 421 kts 325°
2026-05-06 11:27 40.28239 23.61997 38075 ft 422 kts 325°
2026-05-06 11:28 40.33112 23.57719 38073 ft 421 kts 325°
2026-05-06 11:28 40.37987 23.53431 38067 ft 421 kts 325°
2026-05-06 11:29 40.42866 23.49133 38067 ft 421 kts 325°
2026-05-06 11:29 40.47700 23.44866 38060 ft 422 kts 324°
2026-05-06 11:30 40.52571 23.40559 38061 ft 422 kts 324°
2026-05-06 11:30 40.57461 23.36227 38061 ft 423 kts 324°
2026-05-06 11:31 40.62351 23.31889 38053 ft 424 kts 324°
2026-05-06 11:31 40.67206 23.27572 38053 ft 424 kts 324°
2026-05-06 11:32 40.72091 23.23222 38049 ft 424 kts 324°
2026-05-06 11:32 40.76972 23.18867 38052 ft 423 kts 324°
2026-05-06 11:33 40.81853 23.14505 38055 ft 423 kts 324°
2026-05-06 11:33 40.86731 23.10138 38046 ft 424 kts 324°
2026-05-06 11:34 40.91616 23.05756 38051 ft 425 kts 324°
2026-05-06 11:34 40.96509 23.01357 38050 ft 425 kts 324°
2026-05-06 11:35 41.01407 22.96948 38046 ft 425 kts 324°
2026-05-06 11:35 41.06294 22.92541 38045 ft 425 kts 324°
2026-05-06 11:36 41.11156 22.88147 38050 ft 425 kts 324°
2026-05-06 11:36 41.16052 22.83715 38047 ft 426 kts 324°
2026-05-06 11:37 41.20955 22.79269 38045 ft 426 kts 324°
2026-05-06 11:37 41.25597 22.74397 38047 ft 425 kts 314°
2026-05-06 11:38 41.29693 22.68726 38047 ft 425 kts 312°
2026-05-06 11:38 41.33630 22.62922 38044 ft 425 kts 311°
2026-05-06 11:39 41.37578 22.57065 38046 ft 425 kts 311°
2026-05-06 11:39 41.41549 22.51207 38045 ft 426 kts 311°
2026-05-06 11:40 41.45523 22.45356 38038 ft 426 kts 311°
2026-05-06 11:40 41.49499 22.39495 38039 ft 426 kts 311°
2026-05-06 11:41 41.53472 22.33626 38042 ft 425 kts 311°
2026-05-06 11:41 41.57412 22.27792 38037 ft 425 kts 311°
2026-05-06 11:42 41.61373 22.21916 38037 ft 425 kts 311°
2026-05-06 11:42 41.65335 22.16025 38036 ft 426 kts 311°
2026-05-06 11:43 41.69298 22.10124 38035 ft 426 kts 311°
2026-05-06 11:43 41.73263 22.04205 38031 ft 427 kts 311°
2026-05-06 11:44 41.79186 21.95343 38026 ft 427 kts 311°
2026-05-06 11:44 41.83152 21.89394 38025 ft 427 kts 311°
2026-05-06 11:45 41.87121 21.83428 38023 ft 431 kts 311°
2026-05-06 11:45 41.91114 21.77414 38020 ft 432 kts 310°
2026-05-06 11:46 41.95117 21.71373 38020 ft 433 kts 310°
2026-05-06 11:46 41.99123 21.65316 38021 ft 433 kts 310°
2026-05-06 11:47 42.03129 21.59246 38021 ft 433 kts 310°
2026-05-06 11:47 42.07103 21.53211 38034 ft 433 kts 310°
2026-05-06 11:48 42.11099 21.47130 38036 ft 433 kts 310°
2026-05-06 11:48 42.15091 21.41040 38033 ft 433 kts 310°
2026-05-06 11:49 42.19053 21.34918 38038 ft 433 kts 309°
2026-05-06 11:49 42.22950 21.28705 38039 ft 433 kts 309°
2026-05-06 11:50 42.26812 21.22526 38049 ft 433 kts 309°
2026-05-06 11:50 42.30705 21.16313 38047 ft 433 kts 309°
2026-05-06 11:51 42.34607 21.10089 38052 ft 434 kts 309°
2026-05-06 11:51 42.38508 21.03857 38047 ft 435 kts 309°
2026-05-06 11:52 42.42389 20.97641 38048 ft 435 kts 309°
2026-05-06 11:52 42.46295 20.91373 38049 ft 435 kts 309°
2026-05-06 11:53 42.50192 20.85105 38051 ft 434 kts 309°
2026-05-06 11:53 42.54076 20.78843 38047 ft 434 kts 308°
2026-05-06 11:54 42.57976 20.72544 38045 ft 436 kts 308°
2026-05-06 11:54 42.61877 20.66227 38045 ft 437 kts 308°
2026-05-06 11:55 42.65755 20.59937 38032 ft 437 kts 308°
2026-05-06 11:55 42.69651 20.53604 38031 ft 437 kts 308°
2026-05-06 11:56 42.73547 20.47256 38032 ft 437 kts 308°
2026-05-06 11:56 42.77437 20.40903 38027 ft 437 kts 308°
2026-05-06 11:57 42.81326 20.34543 38021 ft 437 kts 308°
2026-05-06 11:57 42.85564 20.28582 38019 ft 439 kts 315°
2026-05-06 11:58 42.90078 20.23046 38012 ft 439 kts 316°
2026-05-06 11:58 42.94668 20.17525 38005 ft 439 kts 316°
2026-05-06 11:59 42.99258 20.11998 37999 ft 440 kts 315°
2026-05-06 11:59 43.03826 20.06468 37994 ft 441 kts 315°
2026-05-06 12:00 43.08416 20.00891 37990 ft 441 kts 315°
2026-05-06 12:00 43.13002 19.95308 37988 ft 441 kts 315°
2026-05-06 12:01 43.17584 19.89716 37985 ft 441 kts 315°
2026-05-06 12:01 43.22165 19.84115 37985 ft 441 kts 315°
2026-05-06 12:02 43.26744 19.78506 37981 ft 441 kts 315°
2026-05-06 12:02 43.31300 19.72912 37981 ft 441 kts 315°
2026-05-06 12:03 43.35871 19.67289 37971 ft 442 kts 315°
2026-05-06 12:03 43.40457 19.61635 37975 ft 442 kts 315°
2026-05-06 12:04 43.45040 19.55974 37973 ft 442 kts 315°
2026-05-06 12:04 43.49583 19.50349 37971 ft 442 kts 315°
2026-05-06 12:05 43.54161 19.44668 37969 ft 442 kts 315°
2026-05-06 12:05 43.58725 19.38993 37963 ft 441 kts 315°
2026-05-06 12:06 43.63283 19.33314 37966 ft 441 kts 315°
2026-05-06 12:06 43.67844 19.27619 37965 ft 442 kts 315°
2026-05-06 12:07 43.72375 19.21947 37967 ft 443 kts 314°
2026-05-06 12:07 43.76941 19.16222 37975 ft 443 kts 315°
2026-05-06 12:08 43.81497 19.10496 37973 ft 442 kts 315°
2026-05-06 12:08 43.86051 19.04762 37974 ft 442 kts 314°
2026-05-06 12:09 43.90603 18.99014 37956 ft 443 kts 314°
2026-05-06 12:09 43.95165 18.93242 37960 ft 443 kts 314°
2026-05-06 12:10 43.99698 18.87496 37967 ft 444 kts 314°
2026-05-06 12:10 44.04256 18.81708 37985 ft 443 kts 314°
2026-05-06 12:11 44.08808 18.75913 37959 ft 444 kts 314°
2026-05-06 12:11 44.13368 18.70093 37957 ft 445 kts 314°
2026-05-06 12:12 44.17923 18.64265 37950 ft 445 kts 314°
2026-05-06 12:12 44.22493 18.58409 37954 ft 445 kts 314°
2026-05-06 12:13 44.27022 18.52595 37948 ft 445 kts 314°
2026-05-06 12:13 44.31578 18.46731 37942 ft 445 kts 314°
2026-05-06 12:14 44.36120 18.40871 37940 ft 444 kts 313°
2026-05-06 12:14 44.39897 18.35987 37938 ft 444 kts 313°
2026-05-06 12:15 44.44442 18.30100 37939 ft 444 kts 313°
2026-05-06 12:15 44.48953 18.24244 37934 ft 445 kts 313°
2026-05-06 12:16 44.53498 18.18330 37930 ft 445 kts 313°
2026-05-06 12:16 44.58036 18.12412 37926 ft 445 kts 313°
2026-05-06 12:17 44.62568 18.06488 37923 ft 445 kts 313°
2026-05-06 12:17 44.67097 18.00557 37924 ft 445 kts 312°
2026-05-06 12:18 44.71634 17.94599 37923 ft 447 kts 312°
2026-05-06 12:18 44.76150 17.88656 37923 ft 447 kts 312°
2026-05-06 12:19 44.80681 17.82683 37917 ft 446 kts 312°
2026-05-06 12:19 44.85215 17.76691 37913 ft 446 kts 312°
2026-05-06 12:20 44.89719 17.70725 37915 ft 447 kts 311°
2026-05-06 12:20 44.94251 17.64707 37914 ft 447 kts 311°
2026-05-06 12:21 44.98780 17.58680 37913 ft 447 kts 311°
2026-05-06 12:21 45.03304 17.52645 37909 ft 447 kts 311°
2026-05-06 12:22 45.07828 17.46598 37919 ft 447 kts 311°
2026-05-06 12:22 45.12353 17.40533 37910 ft 448 kts 311°
2026-05-06 12:23 45.16853 17.34491 37911 ft 449 kts 311°
2026-05-06 12:23 45.21384 17.28392 37911 ft 448 kts 311°
2026-05-06 12:24 45.25900 17.22299 37922 ft 448 kts 311°
2026-05-06 12:24 45.30427 17.16178 37913 ft 449 kts 311°
2026-05-06 12:25 45.34950 17.10046 37913 ft 449 kts 311°
2026-05-06 12:25 45.39475 17.03899 37918 ft 450 kts 311°
2026-05-06 12:26 45.43990 16.97752 37912 ft 450 kts 311°
2026-05-06 12:26 45.48509 16.91583 37930 ft 450 kts 311°
2026-05-06 12:27 45.53009 16.85426 37912 ft 451 kts 311°
2026-05-06 12:27 45.57535 16.79220 37931 ft 451 kts 311°
2026-05-06 12:28 45.62060 16.73003 37916 ft 451 kts 311°
2026-05-06 12:28 45.66581 16.66774 37931 ft 451 kts 311°
2026-05-06 12:29 45.71106 16.60522 37918 ft 452 kts 311°
2026-05-06 12:29 45.75635 16.54252 37927 ft 453 kts 311°
2026-05-06 12:30 45.80128 16.48018 37932 ft 452 kts 311°
2026-05-06 12:30 45.84633 16.41754 37930 ft 451 kts 311°
2026-05-06 12:31 45.89136 16.35475 37937 ft 451 kts 311°
2026-05-06 12:31 45.93617 16.29210 37934 ft 452 kts 311°
2026-05-06 12:32 45.98130 16.22888 37931 ft 453 kts 311°
2026-05-06 12:32 46.02641 16.16554 37944 ft 453 kts 311°
2026-05-06 12:33 46.07116 16.10256 37930 ft 451 kts 310°
2026-05-06 12:33 46.11594 16.03937 37927 ft 450 kts 310°
2026-05-06 12:34 46.16071 15.97605 37927 ft 450 kts 310°
2026-05-06 12:34 46.20511 15.91309 37922 ft 450 kts 310°
2026-05-06 12:35 46.24978 15.84959 37923 ft 450 kts 310°
2026-05-06 12:35 46.29467 15.78639 37928 ft 451 kts 311°
2026-05-06 12:36 46.34041 15.72459 37920 ft 449 kts 312°
2026-05-06 12:36 46.38615 15.66292 37917 ft 449 kts 311°
2026-05-06 12:37 46.43165 15.60100 37907 ft 449 kts 311°
2026-05-06 12:37 46.47675 15.53927 37914 ft 449 kts 311°
2026-05-06 12:38 46.52214 15.47696 37928 ft 449 kts 311°
2026-05-06 12:38 46.56764 15.41431 37916 ft 452 kts 311°
2026-05-06 12:39 46.61335 15.35130 37901 ft 453 kts 311°
2026-05-06 12:39 46.65903 15.28812 37897 ft 452 kts 311°
2026-05-06 12:40 46.70465 15.22490 37887 ft 452 kts 311°
2026-05-06 12:40 46.75015 15.16169 37894 ft 452 kts 311°
2026-05-06 12:41 46.79576 15.09817 37890 ft 453 kts 311°
2026-05-06 12:41 46.84094 15.03511 37876 ft 452 kts 310°
2026-05-06 12:42 46.88629 14.97167 37883 ft 451 kts 310°
2026-05-06 12:42 46.93157 14.90811 37895 ft 451 kts 310°
2026-05-06 12:43 46.97685 14.84439 37888 ft 452 kts 310°
2026-05-06 12:43 47.02229 14.78032 37880 ft 453 kts 310°
2026-05-06 12:44 47.06779 14.71602 37899 ft 454 kts 310°
2026-05-06 12:44 47.11304 14.65193 37885 ft 451 kts 310°
2026-05-06 12:45 47.15815 14.58787 37882 ft 450 kts 310°
2026-05-06 12:46 47.22558 14.49173 37877 ft 454 kts 310°
2026-05-06 12:46 47.27095 14.42687 37877 ft 454 kts 310°
2026-05-06 12:47 47.31624 14.36203 37868 ft 455 kts 309°
2026-05-06 12:47 47.36163 14.29682 37857 ft 456 kts 309°
2026-05-06 12:48 47.40703 14.23139 37849 ft 457 kts 309°
2026-05-06 12:48 47.45266 14.16544 37816 ft 460 kts 309°
2026-05-06 12:49 47.49817 14.09955 37811 ft 460 kts 309°
2026-05-06 12:49 47.54388 14.03329 37819 ft 460 kts 309°
2026-05-06 12:50 47.58962 13.96679 37806 ft 460 kts 309°
2026-05-06 12:50 47.63533 13.90000 37785 ft 463 kts 309°
2026-05-06 12:51 47.68121 13.83285 37776 ft 465 kts 309°
2026-05-06 12:51 47.72726 13.76534 37775 ft 464 kts 309°
2026-05-06 12:52 47.77292 13.69825 37772 ft 464 kts 309°
2026-05-06 12:52 47.81881 13.63058 37767 ft 464 kts 309°
2026-05-06 12:53 47.86472 13.56267 37767 ft 467 kts 309°
2026-05-06 12:53 47.90505 13.50288 37761 ft 470 kts 309°
2026-05-06 12:54 47.95136 13.43411 37755 ft 470 kts 309°
2026-05-06 12:54 47.99769 13.36516 37759 ft 470 kts 309°
2026-05-06 12:55 48.04389 13.29617 37759 ft 470 kts 309°
2026-05-06 12:55 48.08981 13.22739 37757 ft 470 kts 309°
2026-05-06 12:56 48.13603 13.15797 37760 ft 470 kts 309°
2026-05-06 12:56 48.18226 13.08837 37767 ft 470 kts 309°
2026-05-06 12:57 48.22838 13.01875 37763 ft 470 kts 309°
2026-05-06 12:57 48.27272 12.94762 37791 ft 468 kts 306°
2026-05-06 12:58 48.31520 12.87392 37766 ft 466 kts 305°
2026-05-06 12:58 48.35768 12.80032 37767 ft 465 kts 306°
2026-05-06 12:59 48.40045 12.72702 37765 ft 465 kts 306°
2026-05-06 12:59 48.44333 12.65379 37767 ft 465 kts 306°
2026-05-06 13:00 48.48613 12.58056 37769 ft 465 kts 306°
2026-05-06 13:00 48.52889 12.50713 37770 ft 465 kts 306°
2026-05-06 13:01 48.57131 12.43403 37770 ft 465 kts 306°
2026-05-06 13:01 48.61395 12.36037 37767 ft 465 kts 306°
2026-05-06 13:02 48.65652 12.28663 37773 ft 466 kts 306°
2026-05-06 13:02 48.69206 12.22490 37763 ft 468 kts 306°
2026-05-06 13:03 48.73213 12.14756 37772 ft 463 kts 295°
2026-05-06 13:03 48.75609 12.05885 37786 ft 450 kts 277°
2026-05-06 13:04 48.76783 11.96580 37771 ft 449 kts 275°
2026-05-06 13:04 48.77754 11.87237 37772 ft 449 kts 274°
2026-05-06 13:05 48.78711 11.77879 37769 ft 449 kts 274°
2026-05-06 13:05 48.79682 11.68557 37762 ft 450 kts 274°
2026-05-06 13:05 48.80174 11.63869 37549 ft 450 kts 274°
2026-05-06 13:06 48.80666 11.59179 37280 ft 449 kts 274°
2026-05-06 13:06 48.81153 11.54508 37008 ft 448 kts 274°
2026-05-06 13:06 48.81635 11.49846 36744 ft 447 kts 274°
2026-05-06 13:06 48.82114 11.45189 36481 ft 446 kts 274°
2026-05-06 13:07 48.82590 11.40545 36246 ft 445 kts 274°
2026-05-06 13:07 48.83063 11.35905 35990 ft 445 kts 274°
2026-05-06 13:07 48.83571 11.31271 35732 ft 446 kts 276°
2026-05-06 13:07 48.84408 11.26706 35483 ft 452 kts 284°
2026-05-06 13:08 48.85700 11.22326 35235 ft 458 kts 293°
2026-05-06 13:08 48.87481 11.18255 34983 ft 466 kts 302°
2026-05-06 13:08 48.89673 11.14651 34768 ft 472 kts 309°
2026-05-06 13:08 48.92044 11.11198 34520 ft 474 kts 310°
2026-05-06 13:09 48.94475 11.07809 34287 ft 474 kts 311°
2026-05-06 13:09 48.96932 11.04439 34052 ft 474 kts 311°
2026-05-06 13:09 48.99386 11.01073 33855 ft 476 kts 311°
2026-05-06 13:09 49.01835 10.97684 33588 ft 477 kts 311°
2026-05-06 13:10 49.04282 10.94276 32994 ft 477 kts 311°
2026-05-06 13:10 49.06736 10.90836 32158 ft 479 kts 311°
2026-05-06 13:10 49.09193 10.87379 31341 ft 481 kts 311°
2026-05-06 13:10 49.11655 10.83905 30489 ft 484 kts 311°
2026-05-06 13:11 49.14134 10.80393 29621 ft 486 kts 311°
2026-05-06 13:11 49.16606 10.76887 28939 ft 482 kts 311°
2026-05-06 13:11 49.19026 10.73454 28353 ft 478 kts 311°
2026-05-06 13:11 49.21429 10.69972 27743 ft 472 kts 309°
2026-05-06 13:12 49.23701 10.66378 27117 ft 468 kts 308°
2026-05-06 13:12 49.25934 10.62788 26514 ft 464 kts 309°
2026-05-06 13:12 49.28168 10.59214 25915 ft 462 kts 310°
2026-05-06 13:12 49.30384 10.55687 25328 ft 459 kts 310°
2026-05-06 13:13 49.32596 10.52171 24731 ft 457 kts 310°
2026-05-06 13:13 49.34806 10.48658 24130 ft 456 kts 310°
2026-05-06 13:13 49.36839 10.44949 23572 ft 450 kts 303°
2026-05-06 13:13 49.38633 10.41102 23113 ft 443 kts 302°
2026-05-06 13:14 49.40382 10.37265 22654 ft 435 kts 302°
2026-05-06 13:14 49.42105 10.33475 22203 ft 431 kts 302°
2026-05-06 13:14 49.43823 10.29695 21772 ft 430 kts 302°
2026-05-06 13:14 49.45534 10.25929 21325 ft 428 kts 302°
2026-05-06 13:15 49.47232 10.22188 20890 ft 425 kts 302°
2026-05-06 13:15 49.48918 10.18472 20461 ft 422 kts 302°
2026-05-06 13:15 49.50590 10.14781 20035 ft 419 kts 302°
2026-05-06 13:15 49.52248 10.11116 19611 ft 416 kts 302°
2026-05-06 13:16 49.53900 10.07460 19197 ft 414 kts 302°
2026-05-06 13:16 49.55538 10.03839 18782 ft 411 kts 302°
2026-05-06 13:16 49.57167 10.00220 18357 ft 409 kts 302°
2026-05-06 13:16 49.58782 9.96631 17921 ft 406 kts 302°
2026-05-06 13:17 49.60387 9.93064 17482 ft 404 kts 302°
2026-05-06 13:17 49.61977 9.89514 17084 ft 401 kts 302°
2026-05-06 13:17 49.63539 9.86025 16667 ft 399 kts 302°
2026-05-06 13:17 49.65110 9.82511 16265 ft 396 kts 302°
2026-05-06 13:18 49.66669 9.79020 15855 ft 394 kts 302°
2026-05-06 13:18 49.68221 9.75542 15466 ft 391 kts 302°
2026-05-06 13:18 49.69759 9.72093 15052 ft 389 kts 302°
2026-05-06 13:18 49.71285 9.68666 14659 ft 386 kts 302°
2026-05-06 13:19 49.72806 9.65244 14264 ft 384 kts 302°
2026-05-06 13:19 49.74314 9.61848 13871 ft 382 kts 302°
2026-05-06 13:19 49.75815 9.58472 13467 ft 380 kts 302°
2026-05-06 13:19 49.77303 9.55108 13065 ft 377 kts 302°
2026-05-06 13:20 49.78775 9.51776 12683 ft 374 kts 302°
2026-05-06 13:20 49.80247 9.48529 12306 ft 372 kts 305°
2026-05-06 13:20 49.81952 9.45535 11843 ft 369 kts 312°
2026-05-06 13:20 49.83802 9.42741 11338 ft 365 kts 314°
2026-05-06 13:21 49.85620 9.40035 10973 ft 358 kts 314°
2026-05-06 13:21 49.87362 9.37439 10783 ft 346 kts 314°
2026-05-06 13:21 49.89055 9.34920 10550 ft 327 kts 314°
2026-05-06 13:21 49.90649 9.32563 10229 ft 306 kts 314°
2026-05-06 13:22 49.92163 9.30341 9772 ft 295 kts 314°
2026-05-06 13:22 49.93635 9.28183 9175 ft 288 kts 314°
2026-05-06 13:22 49.95083 9.26049 8522 ft 284 kts 314°
2026-05-06 13:22 49.96514 9.23952 8044 ft 279 kts 314°
2026-05-06 13:23 49.97938 9.21876 7650 ft 282 kts 314°
2026-05-06 13:23 49.99365 9.19789 7280 ft 282 kts 313°
2026-05-06 13:23 50.00793 9.17693 6916 ft 282 kts 314°
2026-05-06 13:23 50.02218 9.15588 6515 ft 281 kts 314°
2026-05-06 13:24 50.03639 9.13493 6165 ft 280 kts 313°
2026-05-06 13:24 50.05035 9.11447 5790 ft 279 kts 314°
2026-05-06 13:24 50.06440 9.09370 5421 ft 278 kts 314°
2026-05-06 13:24 50.07846 9.07295 5042 ft 278 kts 313°
2026-05-06 13:25 50.09220 9.05213 4765 ft 272 kts 309°
2026-05-06 13:25 50.10166 9.02743 4520 ft 261 kts 288°
2026-05-06 13:25 50.10724 9.00099 4335 ft 253 kts 284°
2026-05-06 13:25 50.11218 8.97513 4200 ft 243 kts 283°
2026-05-06 13:26 50.11693 8.95033 4081 ft 235 kts 283°
2026-05-06 13:26 50.11991 8.92605 3994 ft 224 kts 262°
2026-05-06 13:26 50.11619 8.90288 3984 ft 217 kts 248°
2026-05-06 13:26 50.11072 8.88184 3984 ft 203 kts 247°
2026-05-06 13:27 50.10576 8.86181 3993 ft 193 kts 248°
2026-05-06 13:27 50.10134 8.84321 4021 ft 177 kts 248°
2026-05-06 13:27 50.09706 8.82504 3718 ft 180 kts 248°
2026-05-06 13:27 50.09270 8.80681 3398 ft 179 kts 248°
2026-05-06 13:28 50.08836 8.78865 3124 ft 177 kts 249°
2026-05-06 13:28 50.08412 8.77088 2878 ft 172 kts 248°
2026-05-06 13:28 50.08009 8.75396 2653 ft 165 kts 248°
2026-05-06 13:28 50.07622 8.73776 2440 ft 155 kts 249°
2026-05-06 13:29 50.07266 8.72285 2254 ft 139 kts 248°
2026-05-06 13:29 50.07074 8.70877 2017 ft 130 kts 261°
2026-05-06 13:29 50.06955 8.69482 1822 ft 131 kts 261°
2026-05-06 13:29 50.06750 8.68101 1616 ft 130 kts 254°
2026-05-06 13:30 50.06469 8.66770 1454 ft 130 kts 248°
2026-05-06 13:30 50.06152 8.65457 1275 ft 128 kts 248°
2026-05-06 13:30 50.05820 8.64143 1118 ft 131 kts 247°
2026-05-06 13:30 50.05506 8.62834 954 ft 128 kts 249°
2026-05-06 13:31 50.05188 8.61532 818 ft 130 kts 249°
2026-05-06 13:31 50.04880 8.60191 669 ft 132 kts 249°
2026-05-06 13:31 50.04564 8.58891 462 ft 126 kts 249°
2026-05-06 13:31 50.04264 8.57652 370 ft 115 kts 250°
2026-05-06 13:32 50.04046 8.56739 364 ft 64 kts 249°
2026-05-06 13:32 50.03935 8.56278 364 ft 38 kts 249°
2026-05-06 13:32 50.03887 8.56007 358 ft 21 kts 264°
2026-05-06 13:32 50.03888 8.55829 356 ft 13 kts 275°
2026-05-06 13:33 50.03899 8.55730 360 ft 0 kts 280°
2026-05-06 13:34 50.03899 8.55728 360 ft 2 kts 280°
2026-05-06 13:34 50.03915 8.55654 360 ft 9 kts 301°
2026-05-06 13:35 50.03966 8.55636 359 ft 7 kts 33°
2026-05-06 13:35 50.03989 8.55706 358 ft 10 kts 68°
2026-05-06 13:35 50.04022 8.55835 359 ft 14 kts 71°
2026-05-06 13:35 50.04056 8.55983 361 ft 15 kts 69°
2026-05-06 13:36 50.04093 8.56136 361 ft 16 kts 69°
2026-05-06 13:36 50.04122 8.56253 363 ft 11 kts 68°
2026-05-06 13:36 50.04175 8.56278 362 ft 8 kts 342°
2026-05-06 13:36 50.04199 8.56264 365 ft 3 kts 340°
2026-05-06 13:37 50.04206 8.56259 364 ft 0 kts 340°
2026-05-06 13:37 50.04214 8.56255 362 ft 2 kts 340°
2026-05-06 13:37 50.04234 8.56244 365 ft 4 kts 340°
2026-05-06 13:38 50.04265 8.56226 365 ft 6 kts 339°
2026-05-06 13:38 50.04287 8.56177 364 ft 8 kts 281°
2026-05-06 13:38 50.04312 8.56080 367 ft 10 kts 322°
2026-05-06 13:38 50.04376 8.56037 367 ft 10 kts 339°
2026-05-06 13:39 50.04434 8.56058 369 ft 9 kts 53°
2026-05-06 13:39 50.04461 8.56156 365 ft 11 kts 69°
2026-05-06 13:39 50.04490 8.56276 366 ft 13 kts 69°
2026-05-06 13:39 50.04519 8.56391 365 ft 8 kts 64°
2026-05-06 13:40 50.04566 8.56449 367 ft 9 kts 26°
2026-05-06 13:40 50.04628 8.56495 366 ft 8 kts 25°
2026-05-06 13:40 50.04665 8.56536 369 ft 3 kts 65°
2026-05-06 13:40 50.04658 8.56590 367 ft 7 kts 109°
2026-05-06 13:41 50.04646 8.56633 365 ft 2 kts 114°
2026-05-06 13:41 50.04641 8.56650 367 ft 1 kts 114°
2026-05-06 13:41 50.04639 8.56657 367 ft 0 kts 114°